• In Netherlands
  • List of Countries
  • For 7 days
  • Water Temperature
  • Satellite Maps
  • Weather Map
  • Weather Widgets
  • user-avatar
    Login

    Hourly Weather Malachowo

    Today, 25 September, Tuesday

    Time Temperature Precipitation Wind Pressure Humidity
    00:00 +5°C° 0 mm 5 mps 750 mmHg 79%
    01:00 +4°C° 0 mm 4 mps 751 mmHg 84%
    02:00 +4°C° 0 mm 4 mps 751 mmHg 85%
    03:00 +4°C° 0 mm 4 mps 752 mmHg 85%
    04:00 +4°C° 0 mm 4 mps 752 mmHg 86%
    05:00 +3°C° 0 mm 5 mps 753 mmHg 83%
    06:00 +5°C° 0 mm 5 mps 753 mmHg 80%
    07:00 +6°C° 0 mm 5 mps 754 mmHg 78%
    08:00 +7°C° 0.1 mm 5 mps 754 mmHg 71%
    09:00 +8°C° 0.1 mm 6 mps 755 mmHg 65%
    10:00 +9°C° 0.1 mm 6 mps 755 mmHg 59%
    11:00 +10°C° 0.1 mm 7 mps 756 mmHg 56%
    12:00 +10°C° 0.1 mm 7 mps 756 mmHg 53%
    13:00 +11°C° 0.1 mm 7 mps 756 mmHg 50%
    14:00 +11°C° 0.1 mm 7 mps 757 mmHg 51%
    15:00 +10°C° 0.1 mm 6 mps 757 mmHg 52%
    16:00 +10°C° 0.1 mm 6 mps 758 mmHg 53%
    17:00 +8°C° 0 mm 5 mps 758 mmHg 59%
    18:00 +7°C° 0 mm 5 mps 759 mmHg 64%
    19:00 +6°C° 0 mm 4 mps 759 mmHg 69%
    20:00 +5°C° 0 mm 4 mps 760 mmHg 73%
    21:00 +5°C° 0 mm 4 mps 761 mmHg 77%
    22:00 +4°C° 0 mm 3 mps 761 mmHg 81%
    23:00 +4°C° 0 mm 3 mps 761 mmHg 83%

    Tomorrow, 26 September, Wednesday

    Time Temperature Precipitation Wind Pressure Humidity
    00:00 +3°C° 0 mm 3 mps 762 mmHg 85%
    01:00 +4°C° 0 mm 2 mps 762 mmHg 87%
    02:00 +3°C° 0 mm 3 mps 762 mmHg 85%
    03:00 +2°C° 0 mm 3 mps 762 mmHg 83%
    04:00 +2°C° 0 mm 3 mps 762 mmHg 80%
    05:00 +3°C° 0 mm 3 mps 762 mmHg 74%
    06:00 +4°C° 0 mm 4 mps 762 mmHg 69%
    07:00 +5°C° 0 mm 4 mps 762 mmHg 63%
    08:00 +6°C° 0 mm 5 mps 762 mmHg 60%
    09:00 +8°C° 0 mm 6 mps 761 mmHg 56%
    10:00 +10°C° 0 mm 6 mps 761 mmHg 53%
    11:00 +10°C° 0 mm 7 mps 760 mmHg 53%
    12:00 +11°C° 0 mm 7 mps 760 mmHg 52%
    13:00 +11°C° 0 mm 7 mps 759 mmHg 52%
    14:00 +10°C° 0.1 mm 7 mps 758 mmHg 56%
    15:00 +10°C° 0.1 mm 7 mps 758 mmHg 61%
    16:00 +9°C° 0.1 mm 6 mps 757 mmHg 65%
    17:00 +9°C° 0.2 mm 7 mps 757 mmHg 68%
    18:00 +8°C° 0.2 mm 7 mps 756 mmHg 71%
    19:00 +7°C° 0.2 mm 8 mps 756 mmHg 74%
    20:00 +7°C° 0.5 mm 8 mps 755 mmHg 76%
    21:00 +7°C° 0.5 mm 8 mps 755 mmHg 78%
    22:00 +7°C° 0.5 mm 8 mps 754 mmHg 80%
    23:00 +7°C° 0.2 mm 8 mps 753 mmHg 78%

    Day after tomorrow, 27 September, Thursday

    Time Temperature Precipitation Wind Pressure Humidity
    00:00 +8°C° 0.2 mm 7 mps 753 mmHg 76%
    01:00 +9°C° 0.2 mm 7 mps 752 mmHg 73%
    02:00 +9°C° 0 mm 7 mps 752 mmHg 74%
    03:00 +9°C° 0 mm 7 mps 752 mmHg 75%
    04:00 +10°C° 0 mm 8 mps 751 mmHg 75%
    05:00 +10°C° 0.2 mm 8 mps 751 mmHg 78%
    06:00 +11°C° 0.2 mm 8 mps 751 mmHg 80%
    07:00 +11°C° 0.2 mm 8 mps 751 mmHg 82%
    08:00 +12°C° 0.2 mm 8 mps 751 mmHg 83%
    09:00 +12°C° 0.2 mm 8 mps 751 mmHg 84%
    10:00 +14°C° 0.2 mm 7 mps 752 mmHg 84%
    11:00 +14°C° 0.2 mm 7 mps 752 mmHg 83%
    12:00 +15°C° 0.2 mm 7 mps 752 mmHg 82%
    13:00 +16°C° 0.2 mm 7 mps 752 mmHg 81%
    14:00 +16°C° 0.1 mm 7 mps 752 mmHg 81%
    15:00 +16°C° 0.1 mm 6 mps 752 mmHg 80%
    16:00 +16°C° 0.1 mm 6 mps 752 mmHg 80%
    17:00 +15°C° 0.1 mm 5 mps 752 mmHg 83%
    18:00 +15°C° 0.1 mm 5 mps 752 mmHg 85%
    19:00 +14°C° 0.1 mm 5 mps 752 mmHg 87%
    20:00 +14°C° 0 mm 4 mps 752 mmHg 89%
    21:00 +13°C° 0 mm 4 mps 752 mmHg 91%
    22:00 +12°C° 0 mm 4 mps 752 mmHg 93%
    23:00 +12°C° 0 mm 4 mps 751 mmHg 93%

    28 September, Friday

    Time Temperature Precipitation Wind Pressure Humidity
    00:00 +12°C° 0 mm 4 mps 751 mmHg 93%
    01:00 +12°C° 0 mm 4 mps 751 mmHg 94%
    02:00 +12°C° 0 mm 5 mps 750 mmHg 93%
    03:00 +12°C° 0 mm 5 mps 749 mmHg 93%
    04:00 +11°C° 0 mm 6 mps 749 mmHg 93%
    05:00 +13°C° 0 mm 6 mps 748 mmHg 90%
    06:00 +12°C° 0 mm 7 mps 748 mmHg 88%
    07:00 +14°C° 0 mm 7 mps 747 mmHg 85%
    08:00 +15°C° 0 mm 7 mps 747 mmHg 82%
    09:00 +15°C° 0 mm 7 mps 747 mmHg 79%
    10:00 +16°C° 0 mm 7 mps 747 mmHg 75%
    11:00 +16°C° 0.1 mm 6 mps 748 mmHg 74%
    12:00 +16°C° 0.1 mm 6 mps 748 mmHg 73%
    13:00 +15°C° 0.1 mm 6 mps 748 mmHg 71%
    14:00 +15°C° 0 mm 5 mps 748 mmHg 71%
    15:00 +14°C° 0 mm 4 mps 748 mmHg 70%
    16:00 +14°C° 0 mm 4 mps 748 mmHg 69%
    17:00 +12°C° 0 mm 3 mps 749 mmHg 73%
    18:00 +11°C° 0 mm 3 mps 749 mmHg 77%
    19:00 +9°C° 0 mm 3 mps 750 mmHg 81%
    20:00 +9°C° 0 mm 2 mps 750 mmHg 82%
    21:00 +9°C° 0 mm 2 mps 750 mmHg 84%
    22:00 +8°C° 0 mm 2 mps 750 mmHg 85%
    23:00 +8°C° 0 mm 2 mps 751 mmHg 85%

    29 September, Saturday

    Time Temperature Precipitation Wind Pressure Humidity
    00:00 +9°C° 0 mm 1 mps 751 mmHg 85%
    01:00 +8°C° 0 mm 1 mps 751 mmHg 85%
    02:00 +8°C° 0 mm 1 mps 751 mmHg 86%
    03:00 +7°C° 0 mm 1 mps 751 mmHg 87%
    04:00 +7°C° 0 mm 1 mps 751 mmHg 87%
    05:00 +7°C° 0 mm 1 mps 752 mmHg 85%
    06:00 +6°C° 0 mm 2 mps 752 mmHg 82%
    07:00 +7°C° 0 mm 2 mps 753 mmHg 80%
    08:00 +8°C° 0 mm 2 mps 753 mmHg 71%
    09:00 +10°C° 0 mm 2 mps 754 mmHg 62%
    10:00 +13°C° 0 mm 2 mps 754 mmHg 53%
    11:00 +13°C° 0 mm 2 mps 754 mmHg 50%
    12:00 +14°C° 0 mm 2 mps 754 mmHg 46%
    13:00 +14°C° 0 mm 2 mps 754 mmHg 43%
    14:00 +14°C° 0 mm 2 mps 754 mmHg 46%
    15:00 +14°C° 0 mm 2 mps 755 mmHg 49%
    16:00 +13°C° 0 mm 1 mps 755 mmHg 52%
    17:00 +12°C° 0 mm 1 mps 755 mmHg 57%
    18:00 +10°C° 0 mm 1 mps 756 mmHg 61%
    19:00 +9°C° 0 mm 1 mps 756 mmHg 66%
    20:00 +8°C° 0 mm 1 mps 756 mmHg 69%
    21:00 +8°C° 0 mm 1 mps 756 mmHg 72%
    22:00 +7°C° 0 mm 1 mps 756 mmHg 75%
    23:00 +7°C° 0 mm 1 mps 756 mmHg 76%

    30 September, Sunday

    Time Temperature Precipitation Wind Pressure Humidity
    00:00 +7°C° 0 mm 1 mps 756 mmHg 77%
    01:00 +6°C° 0 mm 1 mps 756 mmHg 78%
    02:00 +6°C° 0 mm 1 mps 756 mmHg 78%
    03:00 +6°C° 0 mm 1 mps 756 mmHg 79%
    04:00 +5°C° 0 mm 2 mps 756 mmHg 80%
    05:00 +5°C° 0 mm 2 mps 756 mmHg 78%
    06:00 +6°C° 0 mm 2 mps 756 mmHg 76%
    07:00 +7°C° 0 mm 2 mps 756 mmHg 73%
    08:00 +8°C° 0 mm 3 mps 756 mmHg 66%
    09:00 +10°C° 0 mm 3 mps 756 mmHg 59%
    10:00 +12°C° 0 mm 3 mps 756 mmHg 52%
    11:00 +13°C° 0 mm 3 mps 756 mmHg 49%
    12:00 +13°C° 0 mm 3 mps 755 mmHg 46%
    13:00 +14°C° 0 mm 3 mps 755 mmHg 43%
    14:00 +14°C° 0 mm 3 mps 754 mmHg 45%
    15:00 +14°C° 0 mm 2 mps 754 mmHg 48%
    16:00 +14°C° 0 mm 2 mps 753 mmHg 50%
    17:00 +13°C° 0 mm 2 mps 753 mmHg 51%
    18:00 +10°C° 0 mm 2 mps 753 mmHg 52%
    19:00 +9°C° 0 mm 2 mps 753 mmHg 53%
    20:00 +9°C° 0 mm 2 mps 753 mmHg 51%
    21:00 +9°C° 0 mm 2 mps 752 mmHg 50%
    22:00 +9°C° 0 mm 2 mps 752 mmHg 49%
    23:00 +9°C° 0 mm 2 mps 752 mmHg 49%
    Show more